Wind_Speed
26 27 27 23 22 22 22 24 26 28 29 31 32 32 32 29 26 26 26 26 27 27 27 27 28 29 28 29 29 28 25 23 22 23 23 21 21 21 21 21 22 23 23 24 23 23 22 21 21 20 20 19 19 18 19 19 19 19 20 20 21 21 19 17 17 19 20 21 21 21 21 21 21 21 21 21 21 22 22 23 23 23 23 24 24
24 25 24 21 20 22 22 23 25 26 26 28 29 28 28 27 26 26 27 27 28 28 27 27 27 27 27 29 30 28 25 24 23 23 23 22 21 21 21 21 22 22 23 24 24 24 23 22 21 20 20 20 19 18 19 19 19 19 19 20 21 21 19 18 18 19 21 22 22 21 21 22 22 22 22 23 23 24 24 25 25 25 25 26 26
20 21 20 19 21 22 22 22 22 22 22 23 24 25 26 25 25 26 27 27 27 27 27 27 27 26 27 28 29 28 25 24 23 24 23 23 22 22 21 21 21 22 23 23 24 24 23 22 20 20 20 19 19 19 19 18 18 19 19 20 20 20 20 19 19 20 21 22 22 21 21 22 22 23 23 24 24 25 26 26 27 27 28 28 28
14 15 15 17 19 20 21 21 20 20 21 22 23 24 26 25 25 25 26 26 25 26 27 27 26 26 28 29 27 25 24 23 23 24 24 24 23 22 22 21 21 22 22 23 23 23 23 22 20 20 20 19 19 18 18 17 17 18 18 19 19 20 20 20 20 20 21 21 21 21 22 22 23 23 24 24 25 26 27 27 28 29 30 30 31
8 11 13 15 18 19 21 22 21 22 25 25 24 24 26 26 26 26 26 26 25 26 27 26 26 27 30 30 28 26 24 24 24 25 25 25 24 23 22 21 21 21 23 23 23 23 22 21 21 20 20 20 19 18 18 18 18 18 18 19 19 20 20 21 21 21 21 21 22 22 23 23 24 24 24 24 25 26 27 28 28 30 31 31 32
7 9 12 14 17 19 23 24 23 23 26 27 27 28 27 27 27 28 28 27 26 27 27 27 28 29 30 31 30 29 27 26 26 27 27 26 25 23 21 20 21 22 23 24 23 22 22 21 21 22 22 21 20 20 20 20 19 19 18 18 19 20 20 21 21 21 21 21 22 23 23 24 24 25 25 25 26 27 29 29 30 30 31 31 33
8 10 12 15 17 20 22 23 24 24 25 27 28 29 28 28 29 31 31 29 27 28 28 27 27 29 31 31 31 30 30 28 27 27 27 26 24 22 21 21 22 23 24 23 22 22 22 22 23 24 23 22 21 21 21 21 20 19 18 19 21 22 22 21 22 22 22 23 24 25 25 25 26 26 27 28 29 30 31 30 30 31 31 32 33
11 13 15 17 19 22 22 21 22 24 25 26 27 27 28 29 31 32 32 29 28 28 27 26 27 29 31 31 31 31 30 28 26 26 26 25 23 22 22 22 23 23 23 23 22 23 23 24 24 24 23 21 20 20 20 19 19 19 19 21 22 23 23 22 22 23 23 24 25 26 27 27 28 29 29 30 31 32 32 31 31 32 32 32 33
13 15 17 19 21 22 21 20 22 24 25 25 25 26 27 30 31 32 32 30 28 26 26 27 28 30 32 31 31 29 28 26 26 26 25 25 23 23 23 23 23 23 23 23 23 23 24 24 24 23 21 18 17 18 19 19 19 19 20 22 23 23 23 23 23 24 24 25 26 27 28 30 30 31 31 32 33 33 34 33 33 34 34 32 32
14 16 17 19 20 20 20 20 22 24 25 25 24 24 27 29 29 31 31 31 29 25 25 27 29 31 33 33 31 28 27 26 25 25 26 25 24 23 24 24 24 24 24 24 23 23 23 23 22 22 22 20 19 20 20 21 21 22 22 23 23 22 22 22 23 23 24 25 26 27 29 30 31 32 33 34 35 35 35 34 33 34 34 32 31
16 18 19 20 20 20 20 21 22 23 24 25 25 24 25 26 28 30 31 32 30 25 23 26 28 30 32 31 29 28 27 27 26 26 27 25 24 24 25 26 25 24 25 25 24 23 23 23 22 23 23 23 23 23 23 23 24 24 23 22 21 21 21 21 22 22 23 24 26 27 29 30 31 32 33 34 34 35 35 34 33 32 32 32 30
17 19 21 22 22 21 21 22 23 23 24 26 25 25 24 24 27 30 30 31 32 27 23 25 27 28 29 27 27 28 28 28 28 28 27 26 25 25 26 26 25 24 25 26 25 24 23 24 24 25 25 26 25 25 24 24 25 25 23 23 22 22 22 23 24 25 25 25 26 27 28 30 31 32 32 32 32 33 33 33 32 32 32 32 31
18 19 21 22 23 22 22 23 24 24 25 25 25 25 24 24 27 30 28 30 34 30 25 25 26 27 27 26 27 29 29 29 29 29 28 27 26 25 25 25 25 25 25 25 25 25 25 26 26 27 27 28 27 26 26 26 27 27 26 26 25 25 26 26 27 27 27 27 27 27 29 30 31 31 31 32 32 32 32 32 32 32 32 33 33
18 19 20 20 21 22 23 23 23 24 24 24 24 24 24 25 28 30 28 30 36 34 28 26 26 26 27 28 28 29 29 29 30 30 29 26 25 24 24 24 25 26 27 26 26 26 27 27 27 28 29 29 29 28 28 29 30 29 29 29 29 29 28 27 28 28 29 29 29 29 30 31 32 32 32 32 32 32 31 31 32 32 32 32 32
17 18 18 18 19 22 24 23 23 23 22 22 23 24 24 26 28 28 28 32 38 37 30 26 25 26 28 30 30 28 29 29 29 29 28 26 24 24 24 24 25 27 28 28 28 28 28 28 29 29 29 30 31 30 30 30 30 29 30 30 30 29 29 29 30 31 31 30 30 31 33 33 34 34 34 34 33 33 33 33 33 33 33 33 33
16 17 17 17 18 21 23 23 23 22 22 20 21 22 24 25 27 28 28 32 38 38 31 26 25 27 30 32 30 28 28 29 29 29 28 27 26 24 25 26 26 26 27 28 28 29 29 29 29 29 30 31 32 32 31 30 30 29 30 30 30 31 32 33 33 33 32 32 33 34 35 34 35 35 35 35 35 35 35 35 35 36 36 36 37
16 16 18 18 18 20 21 20 19 20 21 19 20 22 23 24 28 31 30 31 36 40 34 27 26 29 33 33 30 29 29 29 29 30 31 30 29 27 26 26 27 26 27 27 28 28 28 29 29 29 30 31 33 33 32 32 31 31 31 32 33 34 34 35 35 35 35 35 36 37 36 36 36 36 36 36 36 36 37 37 38 39 40 40 41
18 17 18 19 19 19 19 17 17 19 21 21 23 25 25 25 28 32 32 32 38 43 38 30 28 32 34 32 30 30 30 29 29 30 31 32 31 29 27 27 27 27 26 27 28 29 29 30 31 31 30 31 33 33 34 33 33 33 33 32 33 34 35 36 37 37 37 38 39 39 38 38 38 37 37 37 38 38 39 40 40 41 42 44 45
20 19 18 19 19 19 19 18 20 21 19 22 25 26 27 29 31 33 35 37 42 44 38 32 32 33 32 30 30 30 30 30 30 31 32 32 32 31 29 29 28 27 27 28 29 29 30 30 31 32 32 32 32 33 33 32 32 32 32 32 33 35 36 37 38 38 39 40 39 39 39 39 39 38 38 39 40 41 41 42 43 44 46 48 49
23 22 21 20 20 20 20 20 21 23 20 18 23 26 29 32 35 37 38 40 43 41 34 31 34 34 31 29 29 29 30 31 32 32 33 33 33 32 31 31 30 28 27 29 28 28 30 31 31 33 35 33 31 32 32 32 31 32 32 32 33 34 35 36 35 35 37 39 39 38 38 37 38 39 39 40 41 42 43 44 46 48 49 51 53
25 24 23 23 22 21 21 22 22 22 20 16 16 20 24 27 30 33 35 37 40 38 34 33 36 34 30 30 29 30 31 33 33 34 33 33 33 32 31 32 31 29 29 31 31 31 31 33 35 37 37 34 32 32 32 32 32 32 32 32 33 34 35 35 35 34 35 38 38 36 35 36 38 39 40 41 43 44 46 48 49 51 52 53 54
27 26 25 25 24 23 22 23 23 22 21 19 18 19 20 20 22 26 31 36 40 39 36 35 36 34 32 31 32 33 33 34 34 34 33 33 33 31 30 30 31 31 33 34 34 34 34 35 36 38 38 36 35 35 33 32 32 32 32 32 32 33 33 34 35 35 35 36 35 34 35 38 41 42 44 45 47 48 50 51 52 53 54 55 56
30 28 27 27 26 25 25 24 23 22 21 22 23 22 20 18 18 19 23 29 34 37 37 37 37 37 36 35 35 36 36 35 34 33 34 35 34 31 31 33 34 35 36 36 35 35 35 34 34 35 36 37 37 36 33 31 31 32 32 33 34 34 35 35 35 35 35 35 36 38 40 42 44 46 47 48 49 50 51 52 53 54 55 56 57
32 31 30 29 28 27 26 26 25 23 21 22 24 25 23 22 21 19 17 19 23 27 31 35 37 37 38 39 40 41 41 38 35 34 34 35 36 36 36 37 38 38 38 38 37 36 34 33 33 33 34 34 34 33 33 33 34 34 35 36 37 37 37 37 37 37 38 39 41 43 44 46 47 48 48 49 50 51 52 53 53 54 55 57 58
34 32 31 31 30 29 28 27 26 24 21 21 22 23 23 24 23 21 19 20 21 21 23 28 33 36 38 39 39 39 40 38 36 35 34 34 36 39 37 36 36 37 38 38 37 34 32 32 32 32 32 33 34 34 35 36 36 37 37 37 37 37 37 38 38 39 41 42 43 44 45 46 47 47 48 49 50 51 52 53 54 55 57 59 61
35 34 32 32 31 31 30 28 27 25 23 22 22 22 22 23 24 24 24 24 22 21 20 22 26 28 30 32 32 33 35 36 35 33 29 27 29 30 30 30 31 31 32 32 32 32 32 32 32 33 33 34 35 36 36 37 37 38 38 38 38 38 39 39 40 41 42 42 43 43 44 45 46 47 48 49 50 51 52 54 56 58 60 62 64
37 35 34 33 32 32 31 29 28 27 24 23 24 24 24 24 25 25 25 24 23 23 22 21 22 23 24 26 29 32 33 33 31 29 27 26 27 27 28 29 29 28 28 29 29 30 32 33 34 35 35 35 36 37 37 38 38 39 39 39 39 39 39 40 40 41 41 41 42 43 43 44 45 46 48 49 50 52 54 56 58 60 62 64 66
39 37 35 33 32 32 31 31 30 27 23 23 25 26 25 26 25 25 25 25 25 26 26 26 25 25 26 26 28 29 30 28 27 26 26 28 29 29 29 29 29 30 30 31 32 34 34 35 35 35 36 36 36 37 37 37 38 38 38 38 38 39 39 39 40 40 40 41 42 43 44 45 46 47 49 50 52 54 56 58 60 62 64 66 68
38 38 36 34 33 32 31 31 31 29 26 27 29 28 28 29 28 27 26 26 27 27 27 26 26 26 27 28 28 28 27 26 26 27 27 28 29 30 31 31 32 33 33 34 35 36 36 36 36 36 36 36 36 36 36 36 36 37 37 38 38 38 38 39 39 40 41 42 43 44 45 46 47 49 50 52 54 56 58 60 62 64 66 68 69
34 36 36 35 34 33 32 32 32 31 31 31 30 30 30 30 29 28 27 27 27 26 25 25 26 26 26 27 28 29 28 28 28 29 30 31 31 32 33 33 33 34 34 35 35 36 36 36 36 36 36 36 36 36 36 36 37 37 38 38 38 38 38 39 40 41 42 43 44 45 46 47 49 50 52 53 55 58 60 62 65 67 68 69 70
32 33 35 35 35 35 34 33 33 33 33 32 30 29 30 29 28 28 29 28 27 27 27 27 28 29 29 28 29 30 31 31 31 31 31 32 33 34 34 35 35 35 36 36 36 36 36 36 36 36 36 36 36 37 37 37 38 38 38 38 38 39 39 40 41 42 43 44 45 46 47 48 50 52 54 56 58 60 63 65 67 68 69 69 68
36 36 35 35 35 35 34 33 33 33 33 33 32 31 30 29 29 29 30 30 30 30 30 29 30 32 34 34 35 35 36 36 36 36 36 35 35 35 35 36 36 36 36 36 36 36 36 36 36 36 36 36 37 37 37 37 38 38 38 39 39 40 41 41 42 43 44 45 46 47 49 51 52 54 56 58 60 63 64 66 67 67 67 66 64
39 38 37 36 35 34 33 32 31 31 31 32 33 33 34 34 33 33 32 32 32 32 32 32 32 33 34 35 37 38 39 38 38 37 37 38 37 37 37 36 36 35 35 35 35 35 35 35 35 35 36 36 36 37 37 38 38 39 39 40 40 41 41 42 43 44 45 46 48 49 51 53 54 56 58 60 62 64 65 66 65 64 63 61 58
40 39 38 37 36 35 33 31 31 31 32 32 33 33 34 35 36 36 35 34 34 33 34 35 36 36 36 36 37 39 39 39 39 40 40 41 40 40 38 37 36 35 34 34 34 34 34 34 34 35 35 36 36 37 37 38 38 39 39 40 41 42 43 43 44 45 47 49 50 52 53 55 56 58 60 62 63 64 63 63 61 59 57 55 52
41 39 38 36 35 34 34 33 32 33 34 34 33 33 34 34 35 37 37 37 37 36 36 36 37 39 39 39 39 40 41 42 43 44 44 43 43 42 40 37 36 35 34 34 34 34 34 35 35 35 36 36 36 37 37 38 38 39 40 41 42 43 43 45 46 47 49 51 52 53 55 56 58 60 61 62 61 61 59 58 56 54 51 49 47
38 38 37 36 35 33 33 34 35 36 37 38 38 37 35 34 35 36 37 38 38 38 38 38 38 39 39 40 40 40 42 43 45 45 45 44 45 45 43 40 38 37 35 35 35 35 35 36 36 36 36 37 37 37 38 39 39 40 41 42 43 44 45 47 48 49 51 52 53 54 56 57 59 60 60 59 57 56 54 52 50 48 46 45 44
36 37 37 37 38 37 36 36 37 37 38 40 43 44 43 40 38 37 38 39 40 40 40 40 40 40 41 42 42 42 43 44 45 46 45 45 46 45 43 41 39 38 37 37 36 36 36 37 37 37 37 37 37 38 39 40 41 42 42 43 44 46 47 48 49 51 52 53 54 55 56 57 58 57 56 54 53 51 49 47 45 44 42 41 40
38 38 39 39 40 40 41 41 40 39 39 40 42 44 46 46 44 42 41 42 42 43 43 43 43 43 43 44 44 44 43 43 42 42 43 43 43 42 41 39 39 38 37 37 37 37 37 37 37 37 37 38 38 39 40 41 42 43 44 45 46 47 48 49 50 51 52 53 54 54 55 55 54 52 51 50 48 47 45 43 41 40 39 38 36
36 38 40 41 41 41 42 43 43 42 41 40 40 40 42 44 44 44 44 44 45 45 45 46 45 45 46 46 46 45 44 43 42 41 41 40 40 39 39 38 37 36 36 36 36 36 36 37 37 38 38 39 40 41 41 42 43 44 45 46 47 48 48 49 50 50 51 52 52 52 51 50 49 48 47 46 45 43 41 40 38 37 36 34 32
35 36 38 40 42 43 42 42 42 42 42 41 40 40 40 40 41 42 43 44 45 45 45 45 45 45 45 45 44 42 41 41 40 39 39 38 37 37 36 36 36 36 36 36 36 36 36 37 38 39 39 40 41 42 43 43 44 45 46 46 47 47 48 48 48 49 49 49 48 47 47 46 45 44 43 42 41 39 38 37 35 34 32 31 29
34 35 37 38 40 42 43 42 42 41 41 40 40 40 40 40 41 41 42 42 42 43 43 43 43 42 42 42 42 41 40 39 39 38 37 37 36 35 35 35 35 35 35 35 36 36 37 38 39 40 40 41 42 42 43 43 44 44 45 45 46 46 46 46 46 46 45 44 44 44 43 42 42 41 39 38 37 36 35 33 32 31 29 28 27
27 30 33 35 38 39 41 42 42 42 41 40 39 39 38 38 38 39 39 39 39 39 39 39 39 39 39 39 39 39 39 38 38 37 37 36 35 35 35 35 35 35 36 36 37 38 39 39 40 41 41 41 42 42 42 43 43 43 43 43 44 44 43 43 42 41 41 41 41 41 41 40 39 37 36 35 34 33 32 30 29 28 27 26 26
21 23 25 28 31 34 37 39 41 42 42 42 41 41 40 39 38 38 38 37 37 37 36 35 35 35 35 35 35 35 35 35 35 35 35 35 35 35 35 35 36 36 37 38 38 39 39 40 40 40 40 40 40 41 41 41 41 41 41 41 41 40 39 38 38 39 39 39 39 39 38 37 35 34 33 32 31 30 29 28 27 26 26 25 25
18 20 21 23 25 27 29 32 35 38 40 41 42 42 42 42 42 41 41 40 39 39 38 36 35 35 35 35 35 34 34 35 35 35 35 35 35 36 36 37 37 38 38 38 38 38 38 38 38 38 38 38 38 38 38 38 38 38 38 37 36 35 35 36 36 37 37 37 36 36 34 33 32 31 31 30 29 27 26 26 25 25 24 24 24
17 18 19 21 23 24 25 26 28 30 32 35 37 38 40 41 42 42 43 42 42 42 42 41 41 40 39 38 38 37 37 37 37 37 37 37 37 37 38 38 37 37 37 37 37 37 37 36 36 36 36 36 36 36 36 35 35 34 33 32 32 33 34 34 35 35 35 34 33 32 31 30 30 29 28 28 26 25 25 24 24 24 23 23 23
18 18 18 19 21 23 24 25 25 26 27 28 30 32 33 34 36 37 38 39 40 40 41 41 41 41 41 40 39 38 38 38 38 38 38 38 38 37 37 37 36 36 36 35 35 35 35 34 34 34 34 34 33 33 32 31 30 30 29 30 30 31 32 32 33 32 32 31 30 29 28 28 27 27 26 26 25 24 23 23 23 23 22 22 22
19 18 18 18 19 21 22 24 25 26 26 26 26 27 28 29 30 31 32 34 35 35 36 36 37 38 39 39 38 38 38 38 38 37 37 37 36 36 35 35 34 34 34 34 34 34 33 33 33 32 32 31 30 29 28 28 27 27 28 28 29 29 30 30 30 30 30 29 28 27 27 26 25 25 24 24 23 23 23 23 22 22 22 21 21
21 20 19 19 19 20 21 22 23 25 26 27 26 26 25 25 26 27 28 29 30 31 31 32 33 34 35 36 36 36 36 36 36 36 35 35 35 34 34 34 33 33 33 33 32 32 32 32 31 30 29 28 27 26 26 26 26 26 26 26 27 28 28 28 28 28 28 27 26 26 25 25 24 23 22 22 22 22 22 22 22 22 22 21 21
23 22 21 20 19 20 20 21 21 22 24 25 26 26 25 25 25 25 26 26 27 28 28 29 30 31 32 33 33 33 33 33 33 34 34 34 33 33 33 33 33 32 32 32 32 32 31 30 29 28 27 26 26 26 25 25 25 25 25 25 25 26 26 26 26 26 26 25 25 25 24 24 23 22 22 21 21 21 21 21 22 22 22 22 22
26 24 23 21 20 19 19 20 20 21 21 22 23 24 24 24 25 24 24 25 25 26 26 26 27 28 30 31 31 31 32 32 32 32 32 33 33 33 33 33 32 32 32 32 32 31 30 29 27 27 26 26 26 25 25 24 24 24 24 24 24 24 24 24 24 24 24 24 23 23 23 23 22 22 21 21 20 20 20 20 21 21 22 22 22
27 26 25 24 22 20 19 19 19 19 19 20 21 22 23 23 23 23 23 23 24 24 25 25 25 26 28 29 30 30 31 31 31 31 32 32 32 32 33 33 32 32 32 31 31 30 29 28 27 27 27 26 26 25 24 24 23 23 23 23 23 22 22 22 22 22 22 22 22 22 22 22 22 21 21 20 20 20 20 20 20 20 21 21 22
Wind_Direction
236 227 231 236 238 239 238 236 237 238 239 239 237 240 244 246 247 246 242 239 239 239 238 240 239 237 235 235 236 237 235 233 232 232 233 235 239 243 246 248 249 250 250 251 252 254 255 257 257 256 254 254 254 253 252 253 252 251 251 253 254 255 254 250 246 246 249 253 254 253 254 252 250 249 247 247 247 247 249 250 251 253 254 254 255
231 225 227 231 238 242 238 233 233 233 234 236 236 238 242 245 248 248 245 240 239 240 242 244 242 237 233 234 238 241 238 234 234 235 236 238 241 246 249 251 252 251 251 251 253 254 255 256 254 252 252 255 255 254 254 253 252 252 252 254 256 258 258 254 248 246 247 251 253 254 255 255 253 252 251 251 251 251 252 254 255 256 257 258 259
222 219 228 239 242 237 234 234 233 230 232 236 236 237 239 241 245 247 247 245 242 242 243 245 243 236 230 233 239 242 240 237 236 236 237 239 243 247 250 253 254 253 251 252 253 255 255 254 252 250 251 254 255 254 254 252 250 250 250 252 255 258 259 256 252 249 249 251 254 256 257 257 256 256 255 255 256 256 257 258 259 260 261 262 262
215 216 231 245 243 237 237 238 235 232 233 235 236 237 236 238 241 245 248 248 244 242 243 245 245 235 229 232 240 242 243 241 239 239 240 241 243 247 251 254 254 253 252 252 253 254 254 253 250 250 252 254 255 255 255 252 249 249 251 252 253 255 257 257 255 254 254 256 258 260 260 260 259 258 258 258 259 260 261 261 262 262 262 263 264
217 223 232 240 243 243 244 242 239 236 235 235 237 239 237 237 241 245 248 247 243 239 239 242 241 235 231 233 238 244 248 246 241 240 240 241 244 247 251 254 254 253 251 251 252 252 251 250 249 251 254 254 255 256 255 251 249 251 253 255 255 255 257 259 259 259 261 262 264 264 263 262 261 260 260 261 262 263 264 264 264 264 264 265 266
225 230 238 243 245 244 243 243 243 241 240 240 241 243 242 240 242 246 247 247 244 239 237 238 238 236 234 235 239 244 247 243 240 241 240 241 245 248 252 254 253 251 250 250 251 250 249 250 252 254 254 252 251 252 251 250 251 253 257 260 261 259 258 260 262 263 263 263 263 263 263 262 262 262 263 263 264 264 264 264 265 266 266 267 267
236 239 245 249 250 249 247 247 247 246 246 244 244 246 247 246 246 246 246 245 243 241 239 238 236 235 234 236 239 241 242 241 240 241 242 243 247 250 253 253 251 250 250 250 250 249 249 249 250 252 252 250 249 248 250 252 254 255 258 259 259 258 257 258 260 262 263 263 264 265 265 266 265 266 266 266 267 267 268 269 269 270 269 269 269
236 241 246 249 252 255 258 256 253 250 247 245 246 248 251 253 251 245 243 243 241 240 238 236 234 232 233 237 239 239 241 242 240 240 242 245 249 252 252 250 250 249 250 250 248 247 248 248 251 252 248 245 246 248 252 255 255 255 255 254 255 256 257 259 261 263 265 267 269 270 271 271 270 270 270 270 270 271 272 273 273 272 271 271 272
241 243 247 251 254 259 264 263 257 252 248 247 249 248 250 255 252 242 239 240 241 240 236 234 235 233 232 234 236 239 243 243 239 238 242 246 248 250 250 249 250 250 249 249 247 246 247 249 252 250 243 239 245 251 255 257 256 254 252 252 254 256 259 262 263 265 266 268 269 271 272 273 273 274 274 274 273 273 274 273 272 272 272 272 272
259 256 256 257 259 264 268 266 260 255 251 251 253 251 249 251 245 237 235 234 236 239 236 234 238 238 236 233 234 239 243 241 240 241 245 249 248 248 249 249 249 249 248 246 245 245 248 249 249 245 241 245 251 252 254 256 256 255 253 252 254 256 259 262 264 267 268 269 270 271 272 273 274 275 276 277 278 278 278 277 277 277 277 276 275
272 271 269 267 267 267 268 268 265 260 253 251 253 253 251 248 237 231 233 231 229 234 237 238 241 241 238 235 235 238 238 236 240 245 248 249 248 247 248 248 248 248 247 245 243 243 246 248 247 244 244 248 252 253 256 260 262 263 261 259 259 260 262 264 265 267 269 271 272 274 275 276 276 277 277 278 280 281 282 281 280 280 280 279 279
271 274 275 275 274 269 265 264 263 260 254 252 253 252 250 246 233 228 231 230 225 228 237 242 244 241 235 233 234 234 233 234 240 244 246 245 244 246 248 247 246 246 246 245 244 242 243 244 245 246 248 252 255 259 263 266 267 267 265 264 265 267 269 270 270 271 271 273 275 277 278 279 279 279 280 279 279 279 279 279 278 278 279 280 281
264 268 273 276 276 273 266 261 258 257 253 251 251 249 246 242 233 229 230 225 220 226 240 246 245 240 233 232 234 232 232 235 240 243 244 242 240 242 246 245 243 244 246 248 247 245 244 245 246 249 252 255 259 262 264 265 265 265 266 267 269 271 273 275 276 277 277 278 278 278 280 280 280 279 278 277 275 274 274 274 274 275 276 277 279
258 261 269 275 278 277 272 265 257 251 247 245 245 246 244 240 233 230 231 225 221 228 242 246 244 239 232 234 237 234 233 236 239 240 241 240 239 241 243 242 241 243 246 248 250 250 249 249 249 251 254 257 260 262 263 263 264 266 268 270 271 273 276 277 278 279 280 281 281 283 286 286 284 282 279 277 276 275 275 274 274 274 274 274 276
260 260 266 274 279 279 277 274 265 250 241 239 241 244 245 242 235 233 233 230 225 229 239 247 243 234 230 234 238 237 236 237 238 239 241 242 241 242 244 243 242 243 246 247 249 251 252 252 253 255 257 260 262 263 263 264 266 268 271 272 274 277 280 282 283 283 282 280 280 285 288 288 285 283 280 279 279 279 279 278 277 277 277 277 278
264 264 268 272 277 280 281 281 273 253 235 234 242 245 246 242 235 232 233 232 228 227 234 246 244 233 229 234 238 240 241 240 239 241 245 247 247 245 245 245 245 246 247 248 249 251 253 254 256 258 261 262 264 265 265 266 269 273 276 279 281 283 285 286 287 285 281 278 280 284 285 285 284 281 277 276 276 276 276 275 275 276 277 278 281
266 265 268 270 273 278 282 283 273 248 229 231 242 244 243 240 233 229 232 234 229 226 230 243 244 234 230 233 237 241 244 244 241 242 246 249 250 248 246 246 247 247 248 250 251 252 254 256 258 258 260 262 263 264 265 267 272 277 280 281 282 283 284 285 285 285 282 281 283 284 283 284 284 281 276 273 273 272 273 274 276 277 279 282 285
269 267 267 268 270 275 280 276 265 249 231 224 232 235 235 236 233 231 235 235 228 224 229 239 241 232 228 232 237 242 245 246 245 245 246 249 251 250 249 249 248 247 248 249 251 253 255 257 258 258 259 261 264 265 265 267 273 278 279 279 278 279 281 282 283 283 283 282 284 284 283 283 283 281 277 274 273 274 276 278 280 282 285 287 288
274 273 272 271 271 276 280 273 269 270 251 222 217 223 229 233 233 232 234 234 228 224 227 234 234 228 228 233 239 242 244 245 245 245 246 248 249 249 250 250 248 247 249 251 253 255 256 256 257 259 260 260 263 265 267 269 273 274 274 275 276 277 278 277 275 275 276 278 282 284 282 281 280 279 277 275 276 278 279 281 282 284 287 289 291
274 276 276 275 273 276 280 278 278 285 277 239 215 215 221 228 232 233 234 234 229 226 229 233 229 227 233 240 243 245 244 242 243 244 245 245 245 246 248 249 249 248 250 252 253 254 255 256 258 260 262 263 263 265 267 267 266 266 268 270 272 273 274 274 273 273 274 276 279 280 279 278 277 276 276 278 280 281 282 284 285 287 289 291 292
272 274 276 276 276 275 278 280 282 286 285 273 249 236 232 230 230 231 232 233 230 231 237 237 230 231 240 245 244 245 245 242 241 243 244 243 243 244 246 248 248 247 249 251 252 252 253 256 257 256 257 259 260 260 261 261 262 265 268 268 268 268 269 271 273 274 274 274 273 273 274 275 275 276 278 281 283 284 286 287 288 289 290 291 292
270 272 273 274 275 275 275 277 282 282 281 278 274 269 264 255 242 234 232 233 233 235 238 236 234 238 245 246 245 247 247 246 245 244 243 243 243 244 245 246 247 249 251 253 254 252 251 253 253 251 249 250 253 258 262 265 266 266 266 265 266 267 267 268 268 268 268 266 265 266 270 274 277 280 283 285 286 288 289 290 290 291 291 292 294
270 269 270 271 271 273 274 275 277 280 279 276 275 276 277 276 268 257 248 243 240 238 235 231 232 237 241 242 245 249 250 250 250 248 245 242 241 241 242 243 245 248 252 253 253 251 249 248 249 249 249 251 257 262 266 266 263 260 259 261 264 267 268 269 270 269 269 268 269 271 275 279 282 285 287 288 289 290 290 291 291 292 293 294 295
269 269 269 269 268 269 272 274 275 275 274 273 275 276 277 277 277 273 266 260 254 249 242 237 236 239 242 242 244 247 250 251 252 253 252 246 242 243 245 245 244 245 248 250 251 250 247 247 248 250 252 256 259 261 260 259 258 260 262 265 267 269 271 272 273 274 274 275 276 278 280 282 285 286 288 289 289 290 291 292 292 293 294 294 295
266 267 267 268 268 268 269 270 272 273 271 269 270 271 271 272 273 270 267 268 269 267 261 254 250 251 252 251 249 250 250 250 253 256 256 250 245 244 244 244 243 243 243 246 248 249 249 250 251 252 252 253 254 256 257 258 260 263 265 267 269 271 272 273 274 275 276 277 278 279 281 283 284 286 287 288 289 290 292 292 293 294 295 295 295
261 263 264 265 266 267 267 267 268 269 268 267 267 267 264 262 261 260 261 264 267 270 271 267 262 259 257 256 255 254 251 250 251 251 246 239 237 237 236 238 240 242 243 246 250 252 253 253 253 253 252 252 254 256 259 261 263 265 268 270 272 273 275 276 276 277 278 279 280 281 282 283 285 286 288 289 291 292 293 294 295 295 295 295 295
257 257 258 259 260 262 264 264 265 266 268 267 264 262 261 257 254 254 255 256 256 258 262 264 263 262 262 262 259 253 248 243 239 233 228 226 229 232 234 238 242 245 247 250 252 253 253 253 254 254 254 255 257 259 261 264 266 269 271 273 274 275 276 277 278 278 279 280 282 283 284 286 287 289 290 291 293 294 294 295 295 294 294 293 293
254 254 254 255 255 256 257 259 260 262 262 259 258 258 257 255 253 252 252 252 252 252 253 256 258 259 262 265 260 250 241 236 232 231 232 233 234 236 239 243 246 247 248 249 251 252 253 253 255 256 258 259 261 263 265 268 269 271 272 273 274 275 276 277 279 280 282 283 285 286 287 288 289 290 291 292 292 293 293 293 293 293 293 293 294
252 252 252 252 252 252 252 254 257 257 252 249 251 254 255 255 255 255 253 251 250 250 251 254 258 259 259 257 251 243 236 232 231 230 231 233 237 242 245 248 250 251 251 252 253 254 255 256 257 260 261 263 265 267 268 269 270 272 273 274 275 276 278 279 281 282 284 285 285 286 287 288 289 289 290 291 292 292 293 293 293 294 294 295 295
253 252 252 252 253 253 252 252 253 253 252 251 250 250 251 253 255 255 252 250 249 249 249 248 250 252 248 240 235 232 228 225 225 227 229 233 239 245 249 251 252 253 254 254 255 257 259 260 262 264 265 267 267 268 269 270 271 273 274 275 277 278 279 280 281 282 283 284 284 285 287 288 289 290 291 292 293 294 294 295 295 295 295 296 296
259 259 257 256 255 254 253 253 252 251 250 251 250 248 247 249 252 253 252 250 248 248 247 244 243 244 239 231 228 232 233 233 237 243 246 247 249 250 251 253 254 256 257 259 260 261 263 264 265 266 266 266 266 267 269 271 273 275 276 277 278 279 279 280 281 281 283 284 285 287 289 290 292 293 293 294 295 295 295 295 295 295 295 296 296
262 263 263 261 260 258 256 254 252 252 252 252 251 251 250 248 248 249 251 251 250 250 250 249 247 245 243 239 240 245 249 251 255 258 260 261 261 261 260 260 260 261 262 262 262 262 263 263 263 263 264 266 267 269 272 274 275 277 278 278 279 279 280 281 282 284 285 286 288 290 291 292 293 293 294 294 295 295 296 295 295 295 296 296 297
260 261 261 260 258 257 257 253 249 248 250 252 254 256 259 258 256 255 255 255 256 255 255 255 254 251 250 250 252 256 259 262 263 264 265 267 268 267 264 262 260 260 261 261 262 263 263 264 265 266 267 269 271 272 274 275 276 277 278 278 279 280 281 283 284 285 287 288 290 291 291 292 293 293 294 295 295 296 296 296 296 296 297 297 298
257 258 258 257 254 252 251 249 244 241 242 247 251 254 258 260 260 260 260 260 259 256 253 252 252 253 253 255 257 258 258 258 259 262 264 266 267 264 260 258 259 261 263 264 265 266 267 267 268 269 270 271 272 273 274 274 275 276 277 278 280 281 282 283 285 287 288 289 290 290 291 292 293 294 295 295 295 296 296 296 297 297 297 298 298
256 255 253 251 250 249 248 246 245 242 240 242 246 249 249 249 251 254 256 255 254 253 252 251 253 255 256 257 258 258 258 257 258 260 262 263 263 261 259 259 262 265 266 267 267 267 268 268 269 269 270 271 272 273 274 275 276 277 278 279 280 282 283 285 286 287 288 289 290 290 291 292 293 294 295 296 296 296 297 297 297 298 298 298 298
252 252 249 244 241 241 242 243 244 245 242 240 242 244 245 245 246 248 250 250 250 249 250 252 254 257 258 258 258 258 258 258 259 260 261 261 261 260 260 262 265 267 267 267 267 266 266 267 268 269 270 271 272 273 274 275 277 278 279 280 281 283 284 285 286 287 288 289 290 291 292 293 294 295 296 296 297 297 297 298 298 298 298 298 298
248 246 246 242 237 236 238 239 240 241 241 241 240 242 244 246 247 248 249 251 252 253 254 255 256 258 259 259 258 258 258 258 259 259 259 258 258 258 260 261 263 264 265 265 264 265 265 266 267 268 269 271 272 274 275 276 277 278 279 281 282 283 284 285 286 287 288 289 290 292 293 294 295 296 297 297 297 297 298 298 298 298 298 297 298
250 247 247 246 243 239 239 241 241 241 241 242 243 243 244 247 250 252 252 252 253 254 255 256 257 259 259 259 259 258 258 257 257 256 256 256 257 258 259 259 260 260 261 262 262 263 265 266 267 268 270 271 272 274 275 276 277 278 279 280 281 282 284 285 286 288 289 290 292 293 294 295 296 297 297 297 297 297 298 298 297 297 296 297 298
251 249 249 252 253 251 248 247 248 248 247 247 246 245 244 246 249 250 250 249 249 249 250 251 253 255 256 256 256 257 257 256 256 256 256 257 258 258 258 258 258 259 260 261 262 263 265 266 268 269 270 271 272 274 275 276 277 278 279 280 282 283 285 286 288 289 290 292 293 294 296 297 297 297 297 297 297 297 297 296 296 296 296 298 299
254 252 250 251 254 256 257 256 256 256 255 254 252 250 249 248 249 249 249 249 248 248 248 249 250 251 251 252 254 255 256 256 256 257 258 258 258 258 258 258 259 260 261 262 263 264 266 267 268 269 270 271 272 273 275 276 277 279 280 282 283 285 286 287 289 290 292 294 295 296 297 297 297 296 296 296 296 296 295 295 296 297 298 299 298
260 258 256 254 253 254 256 257 258 259 260 260 259 258 256 255 255 255 255 254 254 253 252 252 251 251 251 252 253 255 255 256 256 257 257 257 257 257 258 258 259 260 261 262 264 265 266 267 269 270 271 272 273 275 276 278 279 280 282 283 284 286 287 288 290 292 295 296 297 297 297 297 296 296 296 296 295 295 295 295 296 297 298 298 297
270 266 263 260 258 256 255 255 255 256 257 258 259 258 258 258 258 258 258 258 258 257 257 256 255 254 253 252 252 253 253 254 254 254 255 255 256 257 258 259 260 261 262 263 264 265 267 268 269 270 271 272 274 275 276 278 279 281 282 283 285 286 288 291 293 296 297 298 298 297 297 297 296 297 296 296 295 295 295 295 296 297 297 296 296
278 275 271 268 265 262 260 258 256 255 255 256 256 256 255 255 255 256 257 258 258 258 258 257 257 257 256 255 255 254 254 254 254 254 255 255 256 257 258 259 260 261 262 263 264 265 266 267 268 270 271 272 273 275 276 278 279 281 282 284 286 289 292 294 297 298 298 298 298 297 296 296 297 297 296 296 295 295 294 295 296 296 296 295 295
287 281 277 274 272 269 267 264 262 259 258 257 257 257 256 256 255 254 254 255 256 257 257 257 258 259 259 259 259 258 258 257 256 255 255 256 256 257 258 258 259 260 262 263 264 265 266 267 268 269 270 271 273 275 276 278 280 282 284 287 290 293 295 297 298 299 299 298 297 296 296 296 296 296 296 296 295 295 295 295 296 297 297 297 296
306 297 288 281 277 273 271 270 268 266 263 261 260 259 259 258 258 257 257 256 256 256 256 257 258 258 259 259 258 258 258 258 257 257 256 256 256 257 258 259 259 260 261 262 263 264 265 265 266 268 269 271 273 275 277 280 282 285 287 290 293 295 297 298 299 299 299 298 296 295 295 296 296 296 297 297 297 297 297 297 298 299 299 299 298
314 310 304 296 288 282 277 273 271 269 268 266 264 262 261 260 259 259 259 258 258 257 257 257 257 258 258 258 257 257 256 257 257 257 256 256 257 258 258 259 259 260 260 260 261 262 263 264 265 267 268 271 273 276 279 282 284 286 288 291 293 295 298 299 300 299 298 296 295 294 295 296 297 298 299 300 300 299 299 299 300 301 301 301 300
317 313 310 307 302 295 288 281 276 273 271 270 268 266 265 263 262 261 259 259 258 257 257 256 256 257 256 256 255 255 256 257 257 258 258 258 258 258 258 258 258 258 258 258 259 260 261 262 263 265 268 271 275 278 281 283 284 285 287 290 293 297 299 300 300 299 298 296 295 295 296 297 299 300 301 302 302 300 299 299 299 301 302 303 302
323 319 315 312 308 304 299 294 287 280 276 273 271 270 268 266 264 263 261 259 258 256 255 255 255 255 256 255 254 253 254 254 255 256 256 256 256 256 256 256 256 256 256 257 257 258 259 260 262 265 268 272 276 279 281 282 283 284 286 290 295 299 301 302 302 301 299 298 297 297 297 299 300 302 303 304 303 302 300 299 299 299 301 303 305
329 324 320 316 312 309 307 303 298 290 282 276 273 271 270 267 265 263 262 260 259 257 255 253 252 252 253 254 254 253 252 252 252 253 253 253 253 253 254 254 254 255 255 255 256 256 257 259 261 264 268 272 275 279 281 282 283 284 286 291 296 301 304 305 305 303 301 300 299 299 299 300 302 304 305 306 306 306 304 302 300 299 299 300 302
333 328 323 318 315 312 310 307 303 297 288 281 275 272 270 269 267 264 262 261 259 258 255 253 251 250 250 250 250 250 250 250 250 250 251 252 252 252 252 252 252 253 253 254 254 254 255 257 260 263 267 271 275 279 282 283 283 284 286 291 297 303 307 309 308 307 305 303 301 301 301 302 303 304 306 306 307 307 307 306 303 301 299 298 298
335 331 326 321 316 313 310 306 302 297 290 283 277 273 270 269 268 267 265 262 260 258 256 254 252 251 250 249 249 248 248 248 248 248 249 250 250 250 250 250 250 251 251 251 252 253 254 257 260 263 267 271 275 280 283 284 284 285 287 291 296 302 308 311 312 311 309 308 306 305 304 304 304 304 305 305 306 307 307 307 306 304 301 299 297
Height
5738 5740 5741 5742 5743 5743 5744 5744 5745 5747 5748 5749 5750 5751 5752 5753 5754 5755 5756 5757 5758 5759 5761 5763 5764 5765 5767 5768 5768 5769 5771 5772 5773 5774 5775 5776 5777 5778 5779 5780 5781 5782 5783 5784 5784 5785 5786 5787 5787 5788 5788 5788 5789 5789 5789 5788 5788 5788 5788 5787 5786 5786 5788 5789 5790 5790 5789 5790 5790 5791 5791 5791 5791 5791 5791 5791 5791 5792 5792 5792 5792 5792 5792 5791 5791
5737 5740 5742 5742 5742 5741 5740 5741 5742 5744 5746 5746 5747 5749 5750 5751 5752 5752 5753 5754 5755 5757 5758 5759 5760 5762 5764 5765 5765 5767 5769 5770 5771 5772 5773 5774 5775 5776 5777 5778 5779 5780 5780 5781 5782 5783 5784 5785 5785 5786 5786 5786 5787 5787 5787 5787 5786 5786 5786 5785 5784 5785 5786 5787 5788 5788 5788 5788 5788 5789 5789 5788 5789 5789 5789 5789 5789 5789 5789 5789 5789 5790 5790 5789 5789
5735 5738 5740 5740 5739 5739 5739 5739 5741 5743 5745 5745 5746 5747 5747 5748 5749 5749 5750 5751 5752 5753 5755 5756 5757 5759 5761 5762 5763 5765 5766 5767 5769 5770 5771 5772 5773 5774 5775 5775 5776 5777 5778 5779 5779 5780 5781 5782 5783 5783 5784 5784 5785 5785 5785 5785 5784 5784 5784 5783 5783 5783 5783 5784 5785 5786 5786 5786 5786 5786 5786 5786 5786 5786 5786 5786 5786 5787 5787 5787 5787 5787 5787 5786 5786
5734 5736 5738 5737 5737 5738 5739 5739 5741 5742 5742 5742 5743 5744 5744 5745 5746 5746 5747 5748 5749 5750 5751 5753 5755 5756 5758 5759 5761 5763 5764 5765 5766 5767 5768 5769 5770 5771 5772 5773 5774 5774 5775 5776 5777 5777 5778 5779 5780 5781 5781 5782 5783 5782 5782 5783 5782 5782 5782 5781 5781 5781 5781 5781 5782 5783 5783 5783 5784 5784 5784 5784 5784 5784 5784 5784 5784 5784 5784 5784 5784 5784 5783 5783 5782
5733 5734 5735 5735 5735 5736 5736 5737 5739 5739 5738 5738 5739 5740 5740 5742 5742 5743 5744 5745 5747 5747 5748 5750 5752 5753 5755 5757 5759 5761 5762 5763 5763 5764 5765 5766 5767 5768 5769 5770 5771 5772 5772 5773 5774 5774 5775 5776 5777 5778 5779 5779 5780 5780 5780 5780 5780 5780 5780 5779 5779 5779 5779 5779 5779 5780 5781 5781 5781 5781 5781 5781 5781 5781 5781 5781 5781 5781 5781 5780 5780 5780 5779 5779 5778
5731 5732 5732 5732 5732 5733 5733 5734 5736 5736 5735 5736 5736 5737 5738 5739 5740 5740 5741 5742 5744 5745 5746 5747 5749 5751 5752 5754 5757 5758 5759 5759 5759 5760 5762 5763 5764 5765 5767 5768 5768 5768 5769 5770 5771 5772 5773 5773 5774 5774 5775 5776 5777 5777 5777 5777 5778 5778 5778 5778 5778 5777 5777 5777 5777 5778 5778 5778 5778 5778 5778 5778 5778 5778 5778 5778 5778 5777 5776 5776 5776 5776 5776 5775 5774
5730 5730 5730 5729 5730 5730 5730 5732 5733 5734 5734 5733 5733 5734 5736 5738 5739 5738 5738 5739 5741 5742 5743 5745 5747 5749 5750 5752 5754 5754 5755 5755 5756 5758 5759 5760 5761 5763 5764 5765 5765 5765 5766 5767 5769 5769 5770 5771 5771 5770 5771 5772 5773 5774 5774 5774 5775 5776 5776 5776 5776 5776 5776 5776 5776 5776 5776 5776 5775 5775 5775 5776 5775 5775 5775 5775 5774 5773 5772 5773 5772 5772 5771 5771 5770
5729 5728 5728 5728 5727 5728 5729 5731 5731 5730 5730 5730 5731 5732 5733 5735 5736 5736 5736 5737 5738 5739 5741 5743 5745 5746 5748 5749 5750 5750 5751 5752 5754 5756 5757 5757 5759 5760 5761 5761 5762 5763 5764 5765 5766 5767 5767 5767 5768 5768 5768 5769 5770 5770 5771 5771 5772 5773 5774 5774 5774 5774 5774 5774 5774 5774 5773 5773 5773 5772 5772 5772 5772 5772 5772 5771 5770 5769 5769 5769 5769 5767 5767 5767 5766
5727 5727 5726 5726 5726 5726 5728 5729 5727 5726 5726 5726 5728 5729 5729 5730 5731 5732 5733 5734 5735 5737 5739 5740 5742 5743 5744 5745 5746 5747 5748 5750 5752 5753 5754 5755 5756 5757 5757 5758 5759 5760 5761 5763 5764 5764 5764 5765 5765 5765 5765 5766 5767 5768 5768 5768 5769 5770 5771 5771 5771 5772 5771 5771 5771 5771 5771 5771 5770 5770 5769 5769 5768 5767 5767 5766 5766 5765 5765 5766 5765 5764 5763 5764 5763
5724 5724 5723 5723 5724 5724 5725 5725 5723 5722 5722 5723 5724 5725 5725 5726 5728 5728 5730 5731 5732 5734 5736 5737 5738 5740 5740 5742 5744 5745 5746 5747 5749 5750 5751 5752 5753 5754 5754 5755 5756 5757 5758 5760 5761 5762 5762 5762 5763 5763 5763 5763 5764 5764 5764 5764 5765 5766 5768 5768 5769 5769 5769 5768 5768 5768 5767 5767 5767 5767 5766 5765 5764 5764 5763 5762 5761 5761 5761 5761 5761 5760 5759 5759 5759
5721 5720 5720 5720 5720 5721 5721 5720 5720 5719 5719 5719 5721 5721 5721 5722 5724 5725 5726 5728 5729 5730 5733 5734 5735 5736 5737 5739 5742 5742 5743 5744 5746 5747 5748 5749 5750 5751 5751 5752 5753 5754 5755 5756 5757 5758 5759 5760 5760 5760 5761 5760 5760 5761 5761 5761 5761 5763 5764 5765 5766 5766 5765 5765 5765 5764 5764 5763 5763 5763 5762 5761 5760 5760 5759 5759 5758 5757 5756 5756 5756 5755 5755 5754 5754
5719 5718 5717 5716 5717 5717 5717 5717 5716 5717 5717 5716 5717 5718 5718 5719 5720 5722 5724 5726 5726 5727 5729 5730 5731 5733 5734 5737 5739 5739 5740 5741 5742 5743 5745 5746 5747 5748 5748 5749 5750 5751 5752 5753 5754 5755 5756 5757 5757 5757 5757 5757 5757 5758 5758 5759 5759 5759 5760 5761 5762 5762 5762 5761 5761 5761 5761 5760 5760 5759 5759 5757 5757 5756 5756 5756 5755 5754 5753 5753 5752 5752 5751 5750 5750
5718 5717 5715 5714 5713 5713 5714 5714 5713 5713 5714 5714 5714 5715 5715 5716 5717 5719 5721 5723 5724 5724 5725 5727 5728 5729 5732 5734 5735 5736 5737 5738 5739 5740 5742 5743 5744 5745 5745 5746 5746 5748 5749 5750 5751 5752 5753 5754 5755 5755 5755 5755 5755 5755 5756 5756 5756 5756 5757 5757 5757 5757 5758 5757 5757 5756 5756 5756 5756 5756 5755 5754 5753 5753 5753 5752 5752 5751 5751 5750 5749 5749 5748 5747 5747
5716 5715 5714 5712 5711 5710 5710 5710 5711 5710 5710 5710 5711 5712 5712 5713 5714 5716 5718 5720 5721 5721 5722 5724 5725 5726 5729 5730 5731 5733 5734 5734 5735 5737 5738 5740 5741 5742 5742 5743 5744 5744 5746 5747 5748 5749 5750 5751 5751 5752 5752 5752 5752 5752 5753 5753 5753 5753 5753 5753 5753 5753 5753 5753 5752 5752 5751 5751 5750 5750 5750 5750 5749 5748 5748 5747 5747 5746 5746 5746 5745 5744 5744 5743 5743
5713 5713 5712 5710 5709 5707 5706 5706 5707 5707 5707 5708 5708 5709 5710 5710 5712 5713 5715 5716 5718 5719 5720 5721 5722 5723 5725 5727 5728 5730 5731 5731 5732 5733 5735 5736 5738 5739 5740 5740 5741 5742 5743 5744 5745 5745 5746 5747 5747 5748 5748 5748 5747 5748 5749 5749 5749 5750 5750 5749 5749 5749 5749 5748 5748 5747 5747 5746 5746 5746 5745 5745 5744 5743 5742 5741 5741 5741 5740 5740 5739 5738 5738 5737 5737
5711 5710 5709 5708 5707 5706 5704 5703 5703 5704 5704 5706 5706 5707 5707 5708 5709 5711 5712 5713 5715 5716 5717 5718 5719 5720 5722 5723 5725 5726 5727 5728 5729 5729 5731 5732 5734 5736 5737 5738 5739 5739 5740 5740 5741 5742 5742 5743 5744 5744 5744 5744 5743 5743 5744 5744 5744 5745 5745 5745 5745 5744 5744 5743 5743 5743 5742 5742 5742 5741 5741 5740 5739 5738 5738 5737 5736 5736 5735 5734 5733 5733 5732 5732 5731
5708 5707 5707 5706 5705 5704 5703 5702 5701 5701 5702 5704 5704 5704 5705 5706 5707 5708 5710 5711 5712 5713 5713 5714 5716 5717 5718 5720 5721 5723 5724 5725 5726 5727 5727 5728 5730 5732 5733 5734 5735 5736 5737 5737 5737 5738 5738 5739 5740 5740 5741 5740 5739 5739 5739 5739 5740 5740 5740 5740 5740 5739 5739 5738 5737 5737 5737 5737 5737 5736 5736 5735 5734 5734 5733 5732 5731 5730 5730 5729 5728 5727 5726 5725 5724
5705 5705 5704 5703 5702 5701 5700 5700 5700 5699 5700 5701 5702 5702 5703 5703 5705 5706 5707 5708 5709 5709 5709 5711 5712 5713 5714 5716 5718 5719 5720 5722 5723 5724 5725 5725 5726 5727 5729 5730 5732 5733 5734 5734 5734 5734 5735 5735 5736 5736 5736 5736 5736 5735 5735 5736 5736 5735 5735 5735 5735 5734 5734 5733 5732 5732 5732 5731 5731 5731 5730 5729 5729 5728 5727 5726 5726 5725 5724 5723 5722 5721 5720 5718 5717
5701 5701 5701 5701 5700 5699 5698 5698 5697 5696 5696 5698 5699 5700 5701 5701 5701 5703 5703 5703 5704 5705 5706 5707 5708 5709 5711 5712 5714 5715 5716 5718 5719 5720 5721 5722 5723 5724 5725 5726 5727 5729 5730 5730 5731 5731 5731 5731 5732 5731 5731 5732 5732 5732 5732 5732 5732 5732 5731 5731 5730 5730 5729 5729 5728 5728 5727 5726 5726 5725 5725 5724 5723 5722 5722 5721 5721 5720 5719 5718 5716 5715 5714 5712 5710
5698 5698 5698 5697 5697 5696 5695 5695 5694 5694 5694 5694 5695 5697 5698 5699 5699 5699 5699 5699 5700 5702 5704 5704 5704 5706 5708 5709 5710 5711 5712 5713 5714 5715 5717 5718 5719 5721 5722 5722 5723 5725 5726 5726 5727 5728 5727 5727 5727 5726 5726 5727 5728 5728 5728 5728 5728 5728 5728 5727 5726 5726 5725 5724 5723 5723 5723 5722 5722 5721 5720 5719 5718 5717 5717 5716 5716 5715 5713 5712 5711 5709 5708 5706 5703
5695 5695 5694 5694 5694 5694 5693 5692 5691 5691 5691 5692 5692 5693 5694 5695 5695 5696 5696 5697 5698 5700 5701 5701 5701 5702 5704 5705 5706 5707 5708 5709 5710 5711 5713 5714 5716 5717 5718 5718 5720 5721 5721 5721 5723 5724 5723 5723 5723 5722 5722 5722 5723 5724 5724 5724 5724 5723 5723 5722 5722 5721 5720 5720 5720 5720 5719 5718 5718 5717 5716 5714 5714 5713 5712 5711 5710 5709 5708 5706 5705 5703 5701 5699 5697
5692 5692 5692 5691 5691 5691 5690 5690 5689 5688 5689 5689 5690 5691 5691 5691 5692 5694 5694 5695 5695 5696 5697 5698 5698 5699 5700 5701 5701 5702 5703 5705 5706 5707 5709 5711 5712 5713 5714 5714 5715 5716 5717 5717 5718 5719 5719 5719 5719 5719 5719 5719 5719 5719 5719 5719 5719 5719 5718 5718 5717 5717 5717 5716 5716 5716 5715 5714 5714 5713 5711 5710 5709 5708 5707 5706 5704 5703 5701 5699 5698 5696 5694 5692 5690
5688 5689 5689 5688 5688 5688 5687 5688 5687 5687 5687 5686 5686 5686 5687 5687 5688 5689 5691 5692 5692 5693 5694 5694 5695 5696 5696 5697 5698 5698 5699 5701 5702 5704 5705 5706 5708 5709 5710 5710 5710 5711 5712 5713 5713 5713 5714 5714 5714 5715 5715 5715 5715 5714 5715 5714 5714 5714 5713 5713 5713 5712 5712 5712 5712 5711 5711 5710 5709 5708 5707 5705 5704 5702 5701 5700 5698 5696 5695 5693 5691 5689 5687 5685 5682
5684 5685 5685 5685 5685 5685 5685 5684 5685 5685 5685 5684 5683 5683 5683 5684 5684 5685 5687 5688 5689 5690 5690 5691 5692 5693 5693 5694 5694 5694 5695 5697 5699 5700 5701 5702 5704 5705 5705 5705 5705 5706 5707 5707 5708 5708 5709 5709 5710 5710 5710 5710 5710 5710 5710 5710 5709 5709 5708 5708 5708 5708 5707 5707 5707 5707 5706 5705 5704 5703 5701 5700 5698 5697 5695 5694 5692 5690 5689 5687 5685 5682 5680 5678 5675
5680 5680 5681 5681 5681 5681 5681 5681 5681 5682 5682 5682 5682 5682 5682 5682 5682 5682 5683 5684 5685 5686 5686 5687 5688 5688 5689 5689 5690 5691 5692 5693 5695 5696 5697 5698 5698 5699 5699 5700 5700 5701 5701 5702 5703 5703 5704 5704 5705 5705 5705 5706 5705 5705 5705 5705 5705 5704 5704 5703 5703 5703 5702 5702 5701 5701 5700 5699 5698 5697 5696 5695 5693 5691 5690 5688 5686 5684 5682 5680 5678 5675 5672 5669 5667
5676 5676 5676 5676 5677 5677 5677 5678 5678 5679 5679 5679 5679 5679 5680 5680 5680 5681 5681 5682 5682 5683 5683 5683 5683 5684 5684 5684 5685 5686 5687 5689 5690 5691 5692 5692 5692 5693 5694 5695 5695 5695 5696 5697 5698 5699 5699 5700 5700 5700 5700 5700 5700 5700 5700 5700 5700 5699 5699 5698 5698 5697 5697 5696 5695 5695 5694 5693 5692 5691 5690 5689 5687 5686 5684 5682 5680 5678 5675 5673 5670 5667 5664 5661 5658
5671 5671 5672 5672 5673 5673 5673 5674 5674 5675 5676 5676 5676 5676 5677 5677 5677 5678 5679 5679 5680 5680 5680 5680 5681 5681 5681 5681 5682 5682 5683 5684 5685 5686 5687 5688 5688 5689 5690 5691 5691 5691 5692 5692 5694 5694 5695 5695 5695 5695 5695 5695 5695 5695 5695 5695 5694 5694 5693 5693 5692 5691 5691 5690 5689 5689 5688 5687 5686 5685 5684 5683 5682 5680 5678 5676 5674 5671 5668 5665 5662 5660 5657 5653 5650
5666 5667 5667 5668 5668 5669 5669 5669 5670 5671 5672 5672 5672 5672 5673 5673 5674 5674 5675 5676 5676 5677 5677 5678 5678 5678 5678 5678 5679 5679 5679 5680 5681 5682 5683 5684 5684 5685 5685 5686 5686 5687 5687 5688 5689 5690 5690 5690 5690 5690 5690 5690 5689 5689 5689 5689 5689 5688 5688 5687 5686 5685 5685 5684 5683 5683 5682 5681 5680 5679 5678 5677 5676 5674 5672 5670 5667 5664 5661 5658 5655 5652 5648 5645 5641
5661 5662 5662 5663 5664 5664 5665 5665 5665 5666 5668 5668 5668 5668 5669 5669 5670 5670 5671 5672 5672 5673 5673 5674 5674 5675 5675 5675 5675 5676 5676 5676 5677 5678 5679 5680 5680 5680 5681 5682 5682 5683 5683 5684 5685 5685 5685 5685 5685 5685 5685 5684 5684 5684 5684 5684 5683 5683 5682 5681 5681 5680 5679 5679 5678 5677 5676 5675 5674 5673 5672 5671 5669 5667 5665 5663 5660 5657 5654 5651 5647 5643 5640 5636 5632
5656 5657 5657 5658 5659 5660 5660 5660 5660 5661 5662 5663 5663 5664 5664 5665 5666 5666 5667 5667 5668 5668 5669 5670 5670 5671 5672 5672 5672 5672 5672 5673 5673 5675 5676 5676 5676 5676 5677 5677 5677 5678 5679 5679 5679 5680 5680 5680 5680 5680 5679 5679 5679 5679 5678 5678 5678 5677 5676 5676 5675 5675 5674 5673 5672 5671 5670 5669 5668 5667 5665 5664 5662 5660 5658 5655 5652 5649 5646 5643 5639 5635 5631 5627 5623
5651 5652 5652 5653 5653 5654 5655 5655 5656 5656 5657 5657 5658 5659 5660 5661 5662 5662 5662 5663 5663 5664 5665 5666 5667 5668 5668 5669 5669 5668 5669 5669 5670 5671 5671 5672 5672 5672 5672 5673 5673 5673 5673 5674 5674 5674 5674 5674 5674 5674 5674 5674 5673 5673 5673 5672 5672 5671 5671 5670 5670 5669 5668 5667 5666 5665 5664 5663 5661 5660 5658 5656 5654 5652 5649 5647 5644 5641 5638 5634 5631 5627 5623 5619 5615
5646 5647 5647 5648 5648 5648 5649 5650 5650 5651 5652 5652 5653 5654 5655 5656 5657 5657 5658 5658 5659 5659 5660 5661 5662 5664 5664 5665 5664 5664 5664 5665 5665 5666 5666 5667 5667 5668 5668 5668 5668 5668 5669 5669 5669 5669 5669 5669 5668 5668 5668 5668 5667 5667 5667 5666 5666 5666 5665 5665 5664 5663 5662 5661 5660 5659 5657 5656 5654 5652 5650 5648 5646 5644 5641 5639 5636 5633 5630 5626 5623 5619 5615 5611 5607
5641 5642 5642 5643 5643 5643 5644 5644 5645 5646 5647 5648 5648 5649 5649 5650 5651 5652 5653 5653 5654 5655 5655 5656 5657 5658 5659 5660 5660 5659 5659 5660 5660 5661 5661 5661 5662 5662 5662 5663 5663 5663 5663 5663 5663 5663 5663 5663 5662 5662 5662 5662 5661 5661 5661 5661 5660 5660 5659 5658 5658 5657 5656 5655 5654 5652 5651 5649 5647 5645 5643 5641 5639 5636 5633 5630 5627 5624 5621 5617 5614 5611 5607 5603 5600
5635 5636 5637 5638 5638 5639 5639 5639 5640 5641 5642 5643 5644 5644 5645 5645 5645 5645 5646 5647 5649 5650 5650 5651 5652 5653 5654 5655 5655 5655 5655 5655 5655 5655 5656 5656 5656 5657 5657 5657 5657 5657 5658 5657 5657 5657 5657 5657 5656 5656 5656 5656 5656 5656 5655 5655 5654 5654 5653 5652 5652 5651 5650 5649 5647 5646 5644 5642 5640 5638 5636 5633 5631 5628 5625 5622 5619 5616 5613 5609 5606 5603 5599 5596 5593
5629 5630 5631 5632 5633 5634 5634 5634 5635 5636 5637 5638 5639 5639 5640 5640 5640 5640 5641 5641 5642 5643 5644 5646 5647 5647 5648 5649 5650 5650 5650 5650 5650 5650 5650 5651 5651 5651 5651 5651 5651 5651 5651 5651 5651 5651 5651 5650 5650 5650 5650 5650 5650 5650 5649 5649 5648 5648 5647 5646 5646 5645 5643 5642 5641 5639 5637 5635 5633 5631 5628 5626 5623 5620 5617 5614 5611 5608 5605 5602 5598 5596 5593 5590 5587
5623 5624 5625 5627 5628 5628 5629 5630 5630 5631 5631 5632 5633 5633 5634 5634 5635 5635 5636 5636 5637 5637 5638 5639 5640 5641 5642 5643 5643 5644 5644 5644 5644 5644 5644 5645 5645 5645 5645 5645 5645 5645 5645 5645 5645 5644 5644 5644 5644 5644 5644 5644 5644 5644 5643 5643 5642 5642 5641 5640 5639 5638 5637 5636 5634 5633 5631 5629 5626 5624 5621 5619 5616 5613 5610 5607 5603 5601 5598 5594 5592 5589 5586 5583 5581
5618 5619 5620 5621 5622 5623 5623 5624 5624 5625 5626 5626 5627 5628 5628 5629 5629 5630 5630 5630 5631 5631 5632 5633 5634 5635 5636 5636 5636 5636 5637 5637 5637 5637 5637 5638 5638 5639 5638 5638 5639 5639 5639 5639 5639 5638 5639 5639 5639 5639 5639 5639 5638 5638 5637 5637 5636 5635 5635 5634 5633 5632 5631 5629 5628 5626 5624 5622 5619 5617 5614 5612 5609 5606 5603 5599 5596 5593 5591 5588 5585 5583 5580 5578 5575
5613 5614 5615 5615 5616 5616 5617 5617 5618 5619 5619 5620 5621 5622 5622 5623 5624 5624 5624 5624 5625 5625 5626 5626 5628 5629 5629 5630 5630 5630 5630 5630 5630 5631 5631 5631 5631 5632 5632 5632 5632 5632 5633 5633 5633 5633 5633 5633 5633 5633 5633 5633 5632 5632 5631 5631 5630 5629 5629 5628 5627 5626 5625 5623 5621 5619 5617 5615 5612 5610 5608 5605 5602 5599 5596 5593 5590 5587 5585 5582 5580 5578 5575 5573 5571
5606 5608 5609 5609 5609 5609 5610 5610 5611 5612 5613 5614 5615 5616 5616 5617 5617 5618 5617 5617 5618 5619 5619 5619 5621 5623 5623 5623 5623 5623 5623 5624 5625 5624 5624 5624 5625 5625 5626 5626 5626 5626 5627 5627 5627 5627 5627 5627 5627 5627 5627 5627 5626 5626 5625 5624 5624 5623 5623 5622 5620 5619 5618 5616 5614 5613 5611 5608 5606 5604 5601 5599 5596 5593 5590 5587 5584 5581 5579 5577 5575 5573 5571 5568 5566
5600 5601 5602 5602 5602 5603 5603 5604 5605 5605 5606 5607 5608 5609 5610 5611 5611 5611 5610 5610 5611 5612 5612 5613 5614 5616 5616 5616 5616 5616 5617 5618 5619 5618 5618 5618 5619 5619 5620 5620 5620 5621 5621 5621 5621 5621 5622 5622 5622 5622 5621 5621 5620 5620 5619 5618 5618 5617 5616 5615 5614 5612 5611 5610 5608 5606 5604 5602 5600 5597 5595 5593 5590 5587 5584 5581 5578 5576 5574 5572 5570 5568 5566 5564 5562
5595 5596 5596 5596 5596 5596 5597 5598 5599 5599 5600 5601 5602 5603 5603 5604 5604 5604 5603 5603 5604 5606 5606 5606 5607 5608 5609 5609 5609 5610 5611 5612 5612 5612 5612 5612 5613 5613 5614 5614 5615 5615 5615 5615 5615 5616 5616 5616 5616 5616 5615 5615 5614 5614 5613 5612 5611 5610 5610 5609 5608 5606 5605 5604 5602 5601 5599 5596 5593 5591 5589 5587 5584 5581 5578 5576 5573 5571 5569 5567 5565 5563 5562 5560 5558
5591 5591 5590 5590 5590 5590 5591 5592 5592 5593 5594 5595 5596 5597 5597 5597 5598 5597 5597 5597 5598 5599 5600 5600 5601 5602 5602 5603 5604 5604 5605 5605 5606 5606 5606 5606 5607 5607 5608 5608 5609 5609 5609 5609 5610 5610 5610 5610 5610 5610 5609 5609 5608 5608 5607 5606 5605 5605 5604 5603 5602 5601 5600 5598 5597 5595 5593 5590 5588 5585 5582 5580 5578 5576 5573 5571 5569 5567 5565 5563 5561 5559 5558 5556 5554
5587 5587 5586 5585 5585 5585 5585 5586 5586 5588 5588 5589 5589 5590 5591 5591 5591 5592 5591 5592 5592 5594 5594 5595 5595 5595 5596 5597 5598 5599 5599 5599 5600 5600 5600 5601 5601 5602 5602 5603 5603 5603 5604 5604 5604 5604 5604 5604 5604 5604 5603 5603 5602 5602 5601 5601 5600 5599 5599 5598 5597 5596 5594 5592 5591 5589 5587 5584 5582 5579 5577 5575 5573 5571 5569 5567 5564 5562 5561 5559 5557 5556 5554 5552 5551
5585 5584 5583 5582 5581 5581 5581 5580 5581 5582 5582 5582 5583 5584 5584 5585 5585 5586 5586 5586 5587 5588 5589 5589 5590 5590 5590 5592 5593 5594 5593 5593 5594 5595 5595 5595 5596 5596 5597 5597 5598 5598 5598 5598 5598 5598 5599 5598 5598 5598 5598 5597 5597 5597 5596 5596 5595 5594 5594 5593 5591 5590 5588 5587 5585 5583 5581 5579 5576 5574 5572 5570 5568 5566 5564 5563 5561 5558 5557 5555 5553 5552 5550 5549 5547
5582 5581 5580 5578 5577 5577 5577 5577 5576 5577 5577 5577 5577 5578 5578 5578 5578 5579 5579 5580 5581 5582 5583 5583 5584 5584 5584 5585 5587 5588 5588 5587 5588 5589 5590 5590 5590 5591 5591 5592 5592 5592 5592 5593 5593 5593 5593 5593 5593 5593 5593 5592 5592 5592 5591 5591 5590 5589 5589 5587 5586 5585 5583 5581 5579 5577 5575 5573 5571 5570 5568 5566 5564 5562 5560 5558 5556 5555 5553 5551 5550 5548 5547 5546 5544
5579 5578 5577 5575 5574 5573 5573 5573 5573 5572 5572 5572 5572 5572 5572 5572 5572 5572 5573 5573 5574 5575 5576 5577 5577 5577 5577 5578 5580 5582 5581 5581 5582 5583 5584 5584 5585 5585 5585 5586 5586 5587 5587 5587 5588 5588 5588 5588 5588 5588 5588 5588 5588 5587 5587 5586 5586 5585 5584 5583 5581 5580 5578 5576 5574 5572 5571 5569 5567 5565 5564 5562 5560 5558 5556 5554 5553 5551 5549 5548 5546 5545 5544 5542 5541
5576 5575 5574 5573 5571 5570 5569 5569 5568 5568 5568 5568 5568 5568 5567 5567 5567 5567 5567 5567 5568 5569 5569 5570 5570 5570 5571 5572 5574 5575 5575 5575 5576 5577 5577 5578 5579 5580 5580 5581 5581 5582 5582 5583 5583 5583 5584 5584 5584 5584 5584 5584 5584 5584 5583 5582 5582 5581 5580 5579 5577 5575 5574 5572 5570 5568 5566 5564 5563 5561 5560 5558 5556 5554 5552 5551 5549 5547 5546 5545 5543 5542 5541 5539 5538
5574 5572 5571 5570 5569 5567 5566 5565 5565 5564 5564 5564 5563 5563 5563 5563 5563 5563 5563 5563 5563 5564 5564 5565 5565 5565 5565 5566 5568 5569 5570 5570 5571 5571 5572 5572 5574 5574 5575 5576 5576 5577 5577 5578 5579 5579 5579 5580 5580 5580 5580 5580 5580 5580 5579 5579 5578 5577 5576 5575 5573 5571 5570 5568 5566 5564 5562 5560 5559 5557 5556 5554 5553 5551 5549 5547 5546 5544 5543 5541 5540 5539 5537 5536 5535
5571 5570 5568 5567 5566 5565 5564 5562 5561 5561 5560 5559 5559 5559 5559 5559 5558 5558 5558 5559 5559 5560 5560 5561 5561 5561 5561 5561 5562 5564 5565 5565 5566 5567 5567 5568 5569 5570 5570 5571 5572 5572 5573 5574 5574 5575 5575 5576 5576 5576 5577 5577 5576 5576 5575 5575 5574 5573 5572 5571 5570 5568 5566 5564 5562 5560 5558 5556 5555 5553 5552 5550 5549 5548 5546 5544 5543 5541 5540 5538 5537 5536 5534 5533 5532
5568 5567 5566 5564 5563 5562 5561 5560 5559 5558 5557 5556 5555 5555 5554 5554 5554 5554 5554 5554 5555 5555 5556 5556 5557 5557 5557 5557 5558 5559 5560 5561 5561 5562 5562 5563 5564 5565 5566 5567 5567 5568 5569 5570 5570 5571 5572 5572 5572 5573 5573 5573 5573 5572 5572 5571 5570 5569 5568 5567 5566 5564 5562 5560 5558 5557 5555 5553 5551 5550 5548 5547 5546 5544 5543 5542 5540 5539 5537 5535 5534 5533 5532 5530 5529
5566 5564 5563 5561 5560 5560 5559 5558 5556 5555 5554 5553 5552 5551 5550 5550 5550 5550 5550 5550 5550 5551 5551 5552 5552 5553 5553 5553 5554 5555 5555 5556 5557 5558 5558 5559 5560 5561 5562 5563 5563 5564 5565 5566 5566 5567 5568 5568 5569 5569 5569 5569 5569 5569 5568 5567 5566 5565 5564 5563 5562 5560 5559 5557 5555 5553 5552 5550 5548 5547 5545 5544 5543 5542 5540 5539 5537 5536 5535 5533 5532 5530 5529 5528 5526